Location: *
(40.4000°N, 15.1200°E)
Time: 09:31:00
(UTC+00:00)

Cosmos 1697 Rocket - Pass Details

Date: 09 April 2020
Orbit: 831 x 845 km, 71.0° (Epoch: 29 May)

Event Time Altitude Azimuth Distance (km) Brightness Sun altitude
Rises 21:08:56 0° 333° (NNW) 3,410 6.9 -35.2°
Reaches altitude 10° 21:11:24 10° 331° (NNW) 2,471 5.9 -35.4°
Enters shadow 21:14:51 38° 319° (NW) 1,279 4.0 -35.8°
